Weather in Raznezh'ye

Russia / Nizhny Novgorod Oblast'     56°11′02″N   45°40′52″E
temp.,
°C
wind,
m/s
gust,
m/s
humid.,
%
clouds,
%
prec.,
mm/h
press.,
hPa
HPBL,
m
16 may, mon
mon1600:00+7w24885 0.0 100063
03:00+6w25919 0.0 100099
06:00+8w248110 0.0 1000199
09:00+13w4760100 0.1 9991350
12:00+11wnw477180 0.5 1000849
15:00+13w476285 0.6 9991462
18:00+11w477241 0.1 1000875
21:00+8w3785100 0.1 1000504
17 may, tue
tue1700:00+8wsw3789100 0.0 1000473
03:00+7wsw379199 0.0 999480
06:00+7wsw3690100 0.0 999533
09:00+7wsw3485100 0.1 1000463
12:00+10wsw2373100 0.0 1000864
15:00+9wsw3375100 0.1 1001716
18:00+9wsw2376100 0.0 1001675
21:00+6wsw2288100 0.0 100153
18 may, wed
wed1800:00+4wnw239685 0.0 100155
03:00+6wnw2792100 0.0 1001315
06:00+7n4896100 0.9 1002561
09:00+7n389391 1.4 1003578
12:00+10n4671100 0.2 10041184
15:00+9nnw4771100 0.3 1005868
18:00+9nnw3669100 0.1 1007759
21:00+6nw2579100 0.2 1008116
19 may, thu
thu1900:00+4nnw128878 0.1 100830
03:00+3nnw2585100 0.1 1008161
06:00+4nw3574100 0.0 1009650
09:00+5nw3475100 0.1 1009884
12:00+8nw3460100 0.3 10091475
15:00+9nnw355388 0.3 10091579
18:00+8nnw35598 0.1 10091102
21:00+3nw24815 0.1 101177
20 may, fri
fri2000:00+2nw25935 0.0 101193
03:00+1nw27964 0.0 1012158
06:00+4nw367511 0.0 1012277
09:00+9nw465353 0.1 10121547
12:00+9nw565386 0.6 10111742
15:00+9nw575186 0.9 10111724
18:00+7nw476072 0.4 10111240
21:00+2nw23761 0.4 101144